Location: *
(58.7167°N, 26.1833°E)
Time: 08:30:44
(UTC+00:00)

Cosmos 990 Rocket - Pass Details

Date: 25 August 2019
Orbit: 748 x 768 km, 74.0° (Epoch: 18 September)

Event Time Altitude Azimuth Distance (km) Brightness Sun altitude
Rises 18:26:12 0° 184° (S) 3,215 6.9 -6.5°
Reaches altitude 10° 18:28:40 10° 178° (S) 2,290 6.1 -6.8°
Maximum altitude 18:33:32 42° 108° (ESE) 1,072 4.4 -7.3°
Drops below altitude 10° 18:38:24 10° 39° (NE) 2,293 6.4 -7.8°
Sets 18:40:52 0° 33° (NNE) 3,219 7.3 -8.1°
